User: anonymous   Login
Location: Utrecht
(52.0830°N, 5.1330°E)
Time: 12:42:59
(UTC+02:00)
Language:

Cosmos 1092 Rocket - Orbit

View from above orbital plane
View from above orbital plane
View from above satellite
View from above satellite

Ground track
Ground track

The orbit data is extracted from the following two-line orbital elements,

1 11327U 79030B   17206.59516828 -.00000009 +00000-0 -25076-4 0  9998
2 11327 082.9492 267.3343 0029009 073.2675 034.7081 13.76965784924215
Epoch (UTC): 25 July 2017 14:17:02
Eccentricity: 0.0029009
inclination: 82.9492°
perigee height: 953 km
apogee height: 996 km
right ascension of ascending node: 267.3343°
argument of perigee: 73.2675°
revolutions per day: 13.76965784
mean anomaly at epoch: 34.7081°
orbit number at epoch: 92421

The dashed part of the orbit path shows where the satellite is in the earth's shadow,  

DLR